Tracking 19125 objects as of 19-Apr-2018
HD Live streaming from Space Station
objects crossing your sky now

CZ-4B DEB

Track CZ-4B DEB now!
10-day predictions


NORAD ID: 35404
Int'l Code: 2002-024J
Perigee: 795.8 km
Apogee: 873.2 km
Inclination: 98.9 °
Period: 101.4 minutes
Semi major axis: 7205 km
RCS: 0.0161 m2 (small)
Launch date: May 15, 2002
Source: People's Republic of China (PRC)
Launch site: Taiyaun Space Center, China (TSC)

Note: This is SATELLITE DEBRIS
aabbcc
Your satellite tracking list
Your tracking list is empty




NASA's NSSDC Master Catalog

Two Line Element Set (TLE):
1 35404U 02024J   18108.18654230 -.00000014  00000-0  14415-4 0  9996
2 35404  98.9046  85.5050 0053711  90.9745 326.8667 14.19419417818857
Source of the keplerian elements: AFSPC